Hourly Data Report for August 16, 2009

All times are specified in Local Standard Time (LST). Add 1 hour to adjust for Daylight Saving Time where and when it is observed.

EMERSON AUT
MANITOBA

49°00'00.000" N
97°14'15.000" W
242.00 m
5020882
71560
WEX

Download Data

Hourly Data (August 2009)
Hourly Data Report for August 16, 2009
Temp Definition
°C
Dew Point Temp Definition
°C
Rel Hum Definition
%
Wind Dir Definition
10's deg

Wind Spd Definition
km/h
Visibility Definition
km
Stn Press Definition
kPa
Hmdx Definition


Wind Chill Definition


Weather Definition


TIME
00:00 16.5 16.3 99 19 4   97.59     LegendNANA
01:00 14.8 14.6 99 24 6   97.57     LegendNANA
02:00 14.9 14.7 99 20 7   97.50     LegendNANA
03:00 15.3 15.1 99 25 2   97.47     LegendNANA
04:00 15.5 15.3 99 9 6   97.49     LegendNANA
05:00 15.3 15.1 99 16 2   97.52     LegendNANA
06:00 15.6 15.4 99 29 4   97.53     LegendNANA
07:00 16.1 15.7 97 24 11   97.57     LegendNANA
08:00 16.5 15.7 95 31 7   97.51     LegendNANA
09:00 16.9 15.6 92 30 17   97.50     LegendNANA
10:00 16.7 15.2 91 29 19   97.50     LegendNANA
11:00 17.0 15.1 89 27 19   97.56     LegendNANA
12:00 16.3 15.3 94 27 11   97.56     LegendNANA
13:00 17.4 15.2 87 28 9   97.54     LegendNANA
14:00 20.2 15.9 76 28 13   97.59 25   LegendNANA
15:00 21.4 15.9 71 26 13   97.57 26   LegendNANA
16:00 21.3 12.3 56 25 32   97.60     LegendNANA
17:00 20.9 11.7 56 25 22   97.63     LegendNANA
18:00 19.4 11.4 60 24 20   97.68     LegendNANA
19:00 17.4 12.3 72 23 13   97.72     LegendNANA
20:00 14.4 12.0 85 21 11   97.74     LegendNANA
21:00 14.5 11.2 81 18 13   97.75     LegendNANA
22:00 14.9 11.0 77 18 19   97.74     LegendNANA
23:00 13.6 11.0 84 19 19   97.73     LegendNANA

Notes on Data Quality.

Legend

  • E = Estimated
  • M = Missing
  • NA = Not Available
  • ‡ = Partner data that is not subject to review by the National Climate Archives
Date modified: